Location: Unspecified
(0.0000°N, 0.0000°E)
Time: 22:58:38
(UTC+02:00)

GPS 2-15 Rocket1 - Visible Passes

Search period start: 27 August 2014 00:00
Search period end: 06 September 2014 00:00
Orbit: 628 x 681 km, 19.8° (Epoch: 25 August)

Date Brightness Start Highest point End Pass type
(mag) Time Alt. Az. Time Alt. Az. Time Alt. Az.
27 Aug 3.5 06:16:23 58° SSE 06:16:23 58° SSE 06:21:06 10° E visible
27 Aug 5.6 21:56:57 10° SW 21:58:29 13° SSW 21:58:29 13° SSW visible
28 Aug 3.2 06:42:30 42° W 06:44:06 73° NNW 06:48:56 10° ENE visible
28 Aug 5.2 20:38:59 10° WSW 20:42:17 18° SSW 20:45:37 10° SSE visible
29 Aug 5.6 05:30:53 20° E 05:30:53 20° E 05:32:22 10° ENE visible
29 Aug 4.0 07:08:37 17° W 07:11:53 38° NNW 07:16:22 10° NE visible
29 Aug 5.6 21:08:46 10° SSW 21:10:21 11° SSW 21:11:57 10° S visible
30 Aug 4.4 05:56:59 38° NE 05:56:59 38° NE 06:00:07 10° ENE visible
30 Aug 4.9 07:36:01 10° WNW 07:39:45 21° NNW 07:43:26 10° NNE visible
31 Aug 4.2 06:23:03 34° NNW 06:23:03 34° NNW 06:27:29 10° NE visible
31 Aug 5.7 20:20:58 10° SSW 20:21:37 10° SSW 20:22:17 10° S visible
01 Sep 5.0 06:49:07 16° NW 06:50:56 20° NNW 06:54:29 10° NNE visible
02 Sep 5.7 05:37:25 16° NE 05:37:25 16° NE 05:38:33 10° NE visible
02 Sep 5.5 07:16:58 10° NW 07:18:58 12° NNW 07:20:57 10° N visible
03 Sep 5.4 06:03:26 16° N 06:03:26 16° N 06:05:29 10° NNE visible
04 Sep 5.5 06:29:26 11° NNW 06:30:11 11° NNW 06:31:48 10° N visible
